| time (UTC) | temp C | wind direction | speed KPH | gust KPH | rain 1hr cm | rain 24hr cm | rain mn cm | humidity % | barometer mb |
| 20260505190416 | 24 | 209 | 17.7 | 33.8 | 0.00 | 0.00 | 0.00 | 29 | 1012.9 |
| 20260505185911 | 24 | 226 | 9.7 | 30.6 | 0.00 | 0.00 | 0.00 | 30 | 1012.9 |
| 20260505185409 | 25 | 241 | 9.7 | 17.7 | 0.00 | 0.00 | 0.00 | 31 | 1012.7 |
| 20260505184904 | 24 | 263 | 9.7 | 24.1 | 0.00 | 0.00 | 0.00 | 31 | 1012.8 |
| 20260505184401 | 25 | 290 | 9.7 | 17.7 | 0.00 | 0.00 | 0.00 | 34 | 1012.9 |
| 20260505183858 | 25 | 179 | 9.7 | 27.4 | 0.00 | 0.00 | 0.00 | 32 | 1012.8 |
| 20260505183355 | 25 | 189 | 16.1 | 20.9 | 0.00 | 0.00 | 0.00 | 32 | 1013.2 |
| 20260505182852 | 24 | 244 | 8.0 | 14.5 | 0.00 | 0.00 | 0.00 | 34 | 1013.2 |
| 20260505182349 | 25 | 199 | 12.9 | 17.7 | 0.00 | 0.00 | 0.00 | 33 | 1012.9 |
| 20260505181845 | 25 | 225 | 9.7 | 29.0 | 0.00 | 0.00 | 0.00 | 33 | 1013.3 |
| 20260505181343 | 25 | 258 | 9.7 | 17.7 | 0.00 | 0.00 | 0.00 | 35 | 1013.4 |
| 20260505180839 | 25 | 220 | 12.9 | 24.1 | 0.00 | 0.00 | 0.00 | 32 | 1013.4 |
| 20260505180336 | 25 | 262 | 9.7 | 12.9 | 0.00 | 0.00 | 0.00 | 33 | 1013.2 |
| 20260505175832 | 25 | 202 | 9.7 | 14.5 | 0.00 | 0.00 | 0.00 | 31 | 1013.5 |
| 20260505175329 | 25 | 261 | 6.4 | 14.5 | 0.00 | 0.00 | 0.00 | 32 | 1013.6 |
| 20260505174825 | 24 | 150 | 4.8 | 17.7 | 0.00 | 0.00 | 0.00 | 31 | 1013.7 |
| 20260505174323 | 24 | 213 | 14.5 | 25.7 | 0.00 | 0.00 | 0.00 | 32 | 1013.4 |
| 20260505173819 | 25 | 336 | 9.7 | 20.9 | 0.00 | 0.00 | 0.00 | 32 | 1013.8 |
| 20260505173315 | 24 | 257 | 6.4 | 11.3 | 0.00 | 0.00 | 0.00 | 37 | 1013.7 |
| 20260505172813 | 24 | 218 | 12.9 | 17.7 | 0.00 | 0.00 | 0.00 | 32 | 1013.7 |
| 20260505172310 | 25 | 184 | 12.9 | 20.9 | 0.00 | 0.00 | 0.00 | 33 | 1013.8 |
| 20260505171804 | 24 | 231 | 6.4 | 12.9 | 0.00 | 0.00 | 0.00 | 34 | 1014.1 |
| 20260505171301 | 24 | 225 | 8.0 | 20.9 | 0.00 | 0.00 | 0.00 | 33 | 1014.1 |
| 20260505170758 | 24 | 263 | 9.7 | 20.9 | 0.00 | 0.00 | 0.00 | 36 | 1014.1 |
| 20260505170255 | 23 | 217 | 14.5 | 25.7 | 0.00 | 0.00 | 0.00 | 34 | 1014.3 |
| 20260505165750 | 23 | 206 | 8.0 | 17.7 | 0.00 | 0.00 | 0.00 | 33 | 1014.2 |
| 20260505165246 | 23 | 273 | 11.3 | 17.7 | 0.00 | 0.00 | 0.00 | 35 | 1014.4 |
| 20260505164742 | 23 | 206 | 9.7 | 16.1 | 0.00 | 0.00 | 0.00 | 37 | 1014.4 |
| 20260505164239 | 23 | 268 | 11.3 | 20.9 | 0.00 | 0.00 | 0.00 | 37 | 1014.3 |
| 20260505163737 | 23 | 188 | 9.7 | 20.9 | 0.00 | 0.00 | 0.00 | 37 | 1014.5 |
| 20260505163236 | 23 | 189 | 6.4 | 20.9 | 0.00 | 0.00 | 0.00 | 37 | 1014.4 |
| 20260505162732 | 22 | 162 | 9.7 | 20.9 | 0.00 | 0.00 | 0.00 | 38 | 1014.6 |
| 20260505162229 | 22 | 200 | 8.0 | 14.5 | 0.00 | 0.00 | 0.00 | 39 | 1014.8 |
| 20260505161726 | 22 | 207 | 12.9 | 20.9 | 0.00 | 0.00 | 0.00 | 38 | 1014.6 |
| 20260505161224 | 22 | 284 | 11.3 | 16.1 | 0.00 | 0.00 | 0.00 | 35 | 1014.7 |
| 20260505160721 | 22 | 237 | 14.5 | 25.7 | 0.00 | 0.00 | 0.00 | 39 | 1015.1 |
| 20260505160219 | 22 | 259 | 17.7 | 22.5 | 0.00 | 0.00 | 0.00 | 35 | 1015.2 |
| 20260505153158 | 21 | 200 | 12.9 | 24.1 | 0.00 | 0.00 | 0.00 | 41 | 1015.5 |
| 20260505152654 | 21 | 170 | 17.7 | 24.1 | 0.00 | 0.00 | 0.00 | 40 | 1015.6 |
| 20260505152150 | 21 | 222 | 11.3 | 17.7 | 0.00 | 0.00 | 0.00 | 42 | 1015.4 |
| 20260505151646 | 21 | 219 | 9.7 | 17.7 | 0.00 | 0.00 | 0.00 | 42 | 1015.3 |
| 20260505151143 | 21 | 285 | 6.4 | 17.7 | 0.00 | 0.00 | 0.00 | 41 | 1015.3 |
| 20260505150639 | 21 | 188 | 14.5 | 17.7 | 0.00 | 0.00 | 0.00 | 40 | 1015.5 |
| 20260505150137 | 21 | 253 | 6.4 | 14.5 | 0.00 | 0.00 | 0.00 | 42 | 1015.2 |
| 20260505140605 | 20 | 232 | 11.3 | 16.1 | 0.00 | 0.00 | 0.00 | 46 | 1015.6 |
| 20260505125018 | 17 | 276 | 8.0 | 11.3 | 0.00 | 0.00 | 0.00 | 54 | 1015.5 |
| 20260505124515 | 17 | 209 | 3.2 | 6.4 | 0.00 | 0.00 | 0.00 | 59 | 1015.6 |
| 20260505124011 | 17 | 264 | 0.0 | 9.7 | 0.00 | 0.00 | 0.00 | 52 | 1015.6 |
| 20260505123508 | 17 | 215 | 8.0 | 12.9 | 0.00 | 0.00 | 0.00 | 58 | 1015.5 |
| 20260505123004 | 16 | 151 | 6.4 | 11.3 | 0.00 | 0.00 | 0.00 | 60 | 1015.6 |
| 20260505122501 | 16 | 275 | 6.4 | 9.7 | 0.00 | 0.00 | 0.00 | 61 | 1015.5 |
| 20260505121958 | 16 | 258 | 1.6 | 11.3 | 0.00 | 0.00 | 0.00 | 61 | 1015.6 |
| 20260505121455 | 15 | 251 | 0.0 | 3.2 | 0.00 | 0.00 | 0.00 | 72 | 1015.7 |
| 20260505120951 | 14 | 191 | 6.4 | 9.7 | 0.00 | 0.00 | 0.00 | 68 | 1015.7 |
| 20260505120447 | 14 | 205 | 4.8 | 9.7 | 0.00 | 0.00 | 0.00 | 70 | 1015.7 |
| 20260505115946 | 13 | 219 | 3.2 | 6.4 | 0.00 | 0.00 | 0.00 | 70 | 1015.7 |
| 20260505115443 | 13 | 53 | 1.6 | 6.4 | 0.00 | 0.00 | 0.00 | 76 | 1015.8 |
| 20260505114942 | 12 | 243 | 6.4 | 11.3 | 0.00 | 0.00 | 0.00 | 76 | 1015.9 |
| 20260505114437 | 12 | 213 | 1.6 | 4.8 | 0.00 | 0.00 | 0.00 | 77 | 1016.1 |
| 20260505113934 | 12 | 216 | 6.4 | 9.7 | 0.00 | 0.00 | 0.00 | 75 | 1016.1 |
| 20260505113430 | 12 | 217 | 8.0 | 11.3 | 0.00 | 0.00 | 0.00 | 75 | 1016.2 |
| 20260505112926 | 11 | 152 | 4.8 | 11.3 | 0.00 | 0.00 | 0.00 | 79 | 1016.0 |
| 20260505112424 | 11 | 191 | 6.4 | 12.9 | 0.00 | 0.00 | 0.00 | 78 | 1016.1 |
| 20260505111920 | 10 | 182 | 3.2 | 4.8 | 0.00 | 0.00 | 0.00 | 82 | 1016.0 |
| 20260505111415 | 10 | 159 | 3.2 | 6.4 | 0.00 | 0.00 | 0.00 | 82 | 1016.1 |
| 20260505110911 | 9 | 191 | 3.2 | 11.3 | 0.00 | 0.00 | 0.00 | 84 | 1016.0 |
| 20260505110408 | 9 | 258 | 1.6 | 3.2 | 0.00 | 0.00 | 0.00 | 86 | 1015.9 |
| 20260505101839 | 9 | 62 | 1.6 | 1.6 | 0.00 | 0.00 | 0.00 | 87 | 1015.3 |
| 20260505101334 | 9 | 146 | 1.6 | 3.2 | 0.00 | 0.00 | 0.00 | 86 | 1015.4 |
| 20260505100830 | 9 | 62 | 1.6 | 1.6 | 0.00 | 0.00 | 0.00 | 85 | 1015.3 |
| 20260505100327 | 9 | 270 | 1.6 | 4.8 | 0.00 | 0.00 | 0.00 | 85 | 1015.2 |
| 20260505095822 | 9 | 167 | 1.6 | 3.2 | 0.00 | 0.00 | 0.00 | 85 | 1015.3 |
| 20260505095321 | 9 | 81 | 0.0 | 0.0 | 0.00 | 0.00 | 0.00 | 86 | 1015.0 |
| 20260505094816 | 9 | 184 | 3.2 | 4.8 | 0.00 | 0.00 | 0.00 | 85 | 1015.2 |
| 20260505094313 | 10 | 283 | 3.2 | 4.8 | 0.00 | 0.00 | 0.00 | 84 | 1015.1 |
| 20260505093808 | 10 | 284 | 1.6 | 3.2 | 0.00 | 0.00 | 0.00 | 84 | 1015.2 |
| 20260505093307 | 10 | 11 | 0.0 | 1.6 | 0.00 | 0.00 | 0.00 | 83 | 1015.1 |
| 20260505092803 | 10 | 221 | 0.0 | 1.6 | 0.00 | 0.00 | 0.00 | 83 | 1015.1 |
| 20260505092304 | 10 | 123 | 1.6 | 6.4 | 0.00 | 0.00 | 0.00 | 81 | 1015.0 |
| 20260505091758 | 10 | 303 | 1.6 | 4.8 | 0.00 | 0.00 | 0.00 | 83 | 1015.0 |
| 20260505091256 | 10 | 213 | 4.8 | 6.4 | 0.00 | 0.00 | 0.00 | 82 | 1015.0 |
| 20260505090754 | 9 | 183 | 6.4 | 9.7 | 0.00 | 0.00 | 0.00 | 84 | 1014.7 |
| 20260505090252 | 9 | 50 | 0.0 | 4.8 | 0.00 | 0.00 | 0.00 | 87 | 1015.2 |
| 20260505085749 | 8 | 296 | 1.6 | 3.2 | 0.00 | 0.00 | 0.00 | 87 | 1014.7 |
| 20260505085247 | 8 | 61 | 0.0 | 1.6 | 0.00 | 0.00 | 0.00 | 87 | 1015.0 |
| 20260505084744 | 9 | 265 | 0.0 | 6.4 | 0.00 | 0.00 | 0.00 | 84 | 1015.0 |
| 20260505084244 | 9 | 258 | 3.2 | 9.7 | 0.00 | 0.00 | 0.00 | 84 | 1015.1 |
| 20260505083740 | 9 | 329 | 0.0 | 1.6 | 0.00 | 0.00 | 0.00 | 87 | 1015.0 |
| 20260505083236 | 10 | 40 | 1.6 | 3.2 | 0.00 | 0.00 | 0.00 | 84 | 1015.0 |
| 20260505082732 | 10 | 30 | 1.6 | 3.2 | 0.00 | 0.00 | 0.00 | 83 | 1014.8 |
| 20260505082230 | 8 | 158 | 8.0 | 9.7 | 0.00 | 0.00 | 0.00 | 88 | 1014.7 |
| 20260505081726 | 8 | 333 | 1.6 | 1.6 | 0.00 | 0.00 | 0.00 | 88 | 1014.6 |
| 20260505081223 | 9 | 277 | 0.0 | 1.6 | 0.00 | 0.00 | 0.00 | 87 | 1014.7 |
| 20260505080720 | 8 | 190 | 6.4 | 9.7 | 0.00 | 0.00 | 0.00 | 88 | 1014.6 |
| 20260505080215 | 8 | 228 | 3.2 | 6.4 | 0.00 | 0.00 | 0.00 | 89 | 1014.7 |
| 20260505075711 | 8 | 67 | 0.0 | 1.6 | 0.00 | 0.00 | 0.00 | 90 | 1014.6 |
| 20260505075209 | 8 | 149 | 0.0 | 1.6 | 0.00 | 0.00 | 0.00 | 90 | 1014.7 |
| 20260505074706 | 8 | 167 | 0.0 | 1.6 | 0.00 | 0.00 | 0.00 | 90 | 1014.5 |
| 20260505074203 | 8 | 222 | 0.0 | 4.8 | 0.00 | 0.00 | 0.00 | 90 | 1014.7 |
| 20260505073701 | 8 | 269 | 0.0 | 1.6 | 0.00 | 0.00 | 0.00 | 91 | 1014.3 |
| 20260505073159 | 8 | 7 | 0.0 | 0.0 | 0.00 | 0.00 | 0.00 | 91 | 1014.5 |
| 20260505072654 | 7 | 352 | 0.0 | 0.0 | 0.00 | 0.00 | 0.00 | 92 | 1014.3 |
| 20260505072151 | 8 | 43 | 0.0 | 1.6 | 0.00 | 0.00 | 0.00 | 92 | 1014.3 |
| 20260505071646 | 7 | 204 | 0.0 | 1.6 | 0.00 | 0.00 | 0.00 | 92 | 1014.4 |
| 20260505071144 | 7 | 71 | 0.0 | 0.0 | 0.00 | 0.00 | 0.00 | 93 | 1014.4 |
| 20260505070641 | 7 | 78 | 0.0 | 0.0 | 0.00 | 0.00 | 0.00 | 93 | 1014.3 |
| 20260505070137 | 7 | 77 | 0.0 | 0.0 | 0.00 | 0.00 | 0.00 | 92 | 1014.3 |
| 20260505065633 | 7 | 97 | 0.0 | 0.0 | 0.00 | 0.00 | 0.00 | 92 | 1014.5 |
| 20260505065130 | 7 | 66 | 3.2 | 3.2 | 0.00 | 0.00 | 0.00 | 92 | 1014.6 |
| 20260505064627 | 7 | 82 | 0.0 | 0.0 | 0.00 | 0.00 | 0.00 | 92 | 1014.5 |
| 20260505064125 | 7 | 64 | 0.0 | 1.6 | 0.00 | 0.00 | 0.00 | 92 | 1014.6 |
| 20260505063622 | 7 | 63 | 0.0 | 1.6 | 0.00 | 0.00 | 0.00 | 92 | 1014.6 |
| 20260505063118 | 7 | 80 | 0.0 | 0.0 | 0.00 | 0.00 | 0.00 | 92 | 1014.4 |
| 20260505062615 | 7 | 69 | 1.6 | 1.6 | 0.00 | 0.00 | 0.00 | 92 | 1014.6 |
| 20260505062112 | 7 | 194 | 0.0 | 0.0 | 0.00 | 0.00 | 0.00 | 92 | 1014.5 |
| 20260505061609 | 8 | 74 | 0.0 | 0.0 | 0.00 | 0.00 | 0.00 | 91 | 1014.4 |
| 20260505061108 | 8 | 71 | 0.0 | 0.0 | 0.00 | 0.00 | 0.00 | 91 | 1014.5 |
| 20260505060605 | 8 | 99 | 0.0 | 0.0 | 0.00 | 0.00 | 0.00 | 90 | 1014.5 |
| 20260505055556 | 8 | 72 | 0.0 | 0.0 | 0.00 | 0.00 | 0.00 | 91 | 1014.5 |
| 20260505055053 | 8 | 63 | 0.0 | 1.6 | 0.00 | 0.00 | 0.00 | 91 | 1014.7 |
| 20260505054550 | 8 | 119 | 0.0 | 0.0 | 0.00 | 0.00 | 0.00 | 89 | 1014.5 |
| 20260505054049 | 8 | 131 | 0.0 | 0.0 | 0.00 | 0.00 | 0.00 | 89 | 1014.7 |
| 20260505053545 | 8 | 50 | 0.0 | 0.0 | 0.00 | 0.00 | 0.00 | 88 | 1014.5 |
| 20260505053042 | 9 | 99 | 0.0 | 0.0 | 0.00 | 0.00 | 0.00 | 87 | 1014.5 |
| 20260505052539 | 9 | 187 | 3.2 | 4.8 | 0.00 | 0.00 | 0.00 | 86 | 1014.6 |
| 20260505052037 | 9 | 152 | 4.8 | 4.8 | 0.00 | 0.00 | 0.00 | 87 | 1014.6 |
| 20260505051533 | 9 | 146 | 1.6 | 4.8 | 0.00 | 0.00 | 0.00 | 87 | 1014.6 |
| 20260505051032 | 9 | 97 | 0.0 | 0.0 | 0.00 | 0.00 | 0.00 | 87 | 1014.6 |
| 20260505050529 | 9 | 301 | 1.6 | 3.2 | 0.00 | 0.00 | 0.00 | 86 | 1014.4 |
| 20260505041457 | 9 | 200 | 0.0 | 0.0 | 0.00 | 0.00 | 0.00 | 87 | 1014.3 |
| 20260505040954 | 9 | 133 | 0.0 | 1.6 | 0.00 | 0.00 | 0.00 | 87 | 1014.2 |
| 20260505040452 | 10 | 259 | 0.0 | 0.0 | 0.00 | 0.00 | 0.00 | 86 | 1014.2 |
| 20260505035948 | 10 | 160 | 0.0 | 1.6 | 0.00 | 0.00 | 0.00 | 84 | 1014.3 |
| 20260505035444 | 10 | 192 | 3.2 | 6.4 | 0.00 | 0.00 | 0.00 | 83 | 1014.3 |
| 20260505034942 | 9 | 109 | 1.6 | 3.2 | 0.00 | 0.00 | 0.00 | 86 | 1014.3 |
| 20260505034438 | 9 | 226 | 0.0 | 0.0 | 0.00 | 0.00 | 0.00 | 87 | 1014.3 |
| 20260505033935 | 9 | 163 | 0.0 | 0.0 | 0.00 | 0.00 | 0.00 | 87 | 1014.4 |
| 20260505033432 | 9 | 229 | 0.0 | 0.0 | 0.00 | 0.00 | 0.00 | 86 | 1014.4 |
| 20260505032930 | 10 | 192 | 0.0 | 0.0 | 0.00 | 0.00 | 0.00 | 86 | 1014.3 |
| 20260505032427 | 10 | 210 | 0.0 | 1.6 | 0.00 | 0.00 | 0.00 | 86 | 1014.4 |
| 20260505031923 | 10 | 135 | 0.0 | 1.6 | 0.00 | 0.00 | 0.00 | 85 | 1014.4 |
| 20260505031421 | 10 | 149 | 0.0 | 1.6 | 0.00 | 0.00 | 0.00 | 85 | 1014.4 |
| 20260505030918 | 10 | 188 | 0.0 | 3.2 | 0.00 | 0.00 | 0.00 | 85 | 1014.5 |
| 20260505030413 | 10 | 160 | 1.6 | 1.6 | 0.00 | 0.00 | 0.00 | 85 | 1014.3 |
| 20260505025909 | 10 | 144 | 0.0 | 3.2 | 0.00 | 0.00 | 0.00 | 84 | 1014.5 |
| 20260505025407 | 10 | 296 | 0.0 | 1.6 | 0.00 | 0.00 | 0.00 | 86 | 1014.4 |
| 20260505024905 | 10 | 143 | 0.0 | 0.0 | 0.00 | 0.00 | 0.00 | 86 | 1014.5 |
| 20260505024403 | 10 | 150 | 0.0 | 1.6 | 0.00 | 0.00 | 0.00 | 85 | 1014.6 |
| 20260505023859 | 10 | 178 | 0.0 | 0.0 | 0.00 | 0.00 | 0.00 | 85 | 1014.6 |
| 20260505023356 | 10 | 179 | 0.0 | 0.0 | 0.00 | 0.00 | 0.00 | 86 | 1014.4 |
| 20260505022853 | 10 | 176 | 0.0 | 1.6 | 0.00 | 0.00 | 0.00 | 85 | 1014.6 |
| 20260505022350 | 10 | 146 | 0.0 | 0.0 | 0.00 | 0.00 | 0.00 | 85 | 1014.7 |
| 20260505021848 | 10 | 153 | 1.6 | 1.6 | 0.00 | 0.00 | 0.00 | 85 | 1014.7 |
| 20260505021344 | 10 | 125 | 0.0 | 0.0 | 0.00 | 0.00 | 0.00 | 85 | 1014.6 |
| 20260505020840 | 10 | 120 | 0.0 | 0.0 | 0.00 | 0.00 | 0.00 | 85 | 1014.7 |
| 20260505020336 | 11 | 141 | 0.0 | 3.2 | 0.00 | 0.00 | 0.00 | 83 | 1014.6 |
| 20260505015833 | 11 | 99 | 0.0 | 1.6 | 0.00 | 0.00 | 0.00 | 83 | 1014.7 |
| 20260505015330 | 11 | 338 | 0.0 | 1.6 | 0.00 | 0.00 | 0.00 | 83 | 1014.7 |
| 20260505014827 | 11 | 71 | 3.2 | 3.2 | 0.00 | 0.00 | 0.00 | 82 | 1014.6 |
| 20260505014324 | 11 | 237 | 0.0 | 0.0 | 0.00 | 0.00 | 0.00 | 84 | 1014.5 |
| 20260505013820 | 11 | 174 | 0.0 | 1.6 | 0.00 | 0.00 | 0.00 | 84 | 1014.5 |
| 20260505013318 | 11 | 167 | 0.0 | 0.0 | 0.00 | 0.00 | 0.00 | 82 | 1014.4 |
| 20260505012816 | 11 | 168 | 0.0 | 1.6 | 0.00 | 0.00 | 0.00 | 82 | 1014.2 |
| 20260505012314 | 11 | 194 | 0.0 | 0.0 | 0.00 | 0.00 | 0.00 | 82 | 1014.1 |
| 20260505011809 | 11 | 162 | 0.0 | 0.0 | 0.00 | 0.00 | 0.00 | 81 | 1014.1 |
| 20260505011307 | 12 | 141 | 0.0 | 0.0 | 0.00 | 0.00 | 0.00 | 80 | 1014.3 |
| 20260505010802 | 12 | 229 | 1.6 | 3.2 | 0.00 | 0.00 | 0.00 | 79 | 1014.3 |
| 20260505010258 | 12 | 129 | 0.0 | 1.6 | 0.00 | 0.00 | 0.00 | 76 | 1014.1 |
| 20260505005754 | 13 | 192 | 0.0 | 0.0 | 0.00 | 0.00 | 0.00 | 77 | 1013.9 |
| 20260505005252 | 13 | 147 | 1.6 | 1.6 | 0.00 | 0.00 | 0.00 | 75 | 1013.7 |
| 20260505004749 | 13 | 116 | 1.6 | 1.6 | 0.00 | 0.00 | 0.00 | 74 | 1013.9 |
| 20260505004245 | 13 | 108 | 0.0 | 0.0 | 0.00 | 0.00 | 0.00 | 75 | 1014.0 |
| 20260505003743 | 13 | 155 | 1.6 | 1.6 | 0.00 | 0.00 | 0.00 | 76 | 1014.1 |
| 20260505003240 | 14 | 174 | 1.6 | 3.2 | 0.00 | 0.00 | 0.00 | 72 | 1014.1 |
| 20260505002736 | 14 | 97 | 0.0 | 3.2 | 0.00 | 0.00 | 0.00 | 70 | 1013.8 |
| 20260505002234 | 15 | 250 | 3.2 | 6.4 | 0.00 | 0.00 | 0.00 | 71 | 1013.7 |
| 20260505001731 | 16 | 271 | 3.2 | 6.4 | 0.00 | 0.00 | 0.00 | 69 | 1013.9 |
| 20260505001229 | 17 | 273 | 4.8 | 6.4 | 0.00 | 0.00 | 0.00 | 58 | 1013.5 |
| 20260505000725 | 17 | 248 | 4.8 | 11.3 | 0.00 | 0.00 | 0.00 | 57 | 1013.6 |
| 20260505000226 | 17 | 260 | 6.4 | 9.7 | 0.00 | 0.00 | 0.00 | 56 | 1013.7 |
| 20260504235720 | 17 | 247 | 3.2 | 9.7 | 0.00 | 0.00 | 0.00 | 58 | 1013.6 |
| 20260504235216 | 17 | 168 | 6.4 | 6.4 | 0.00 | 0.00 | 0.00 | 60 | 1013.7 |
| 20260504234713 | 17 | 238 | 6.4 | 9.7 | 0.00 | 0.00 | 0.00 | 59 | 1013.5 |
| 20260504234210 | 17 | 257 | 4.8 | 12.9 | 0.00 | 0.00 | 0.00 | 59 | 1013.4 |
| 20260504233706 | 17 | 253 | 6.4 | 6.4 | 0.00 | 0.00 | 0.00 | 56 | 1013.3 |
| 20260504233202 | 18 | 248 | 6.4 | 6.4 | 0.00 | 0.00 | 0.00 | 56 | 1013.4 |
| 20260504232700 | 18 | 163 | 6.4 | 9.7 | 0.00 | 0.00 | 0.00 | 53 | 1013.2 |
| 20260504232156 | 18 | 215 | 8.0 | 16.1 | 0.00 | 0.00 | 0.00 | 52 | 1013.2 |
| 20260504231653 | 19 | 256 | 6.4 | 11.3 | 0.00 | 0.00 | 0.00 | 50 | 1012.9 |
| 20260504231150 | 19 | 8 | 1.6 | 6.4 | 0.00 | 0.00 | 0.00 | 49 | 1013.0 |
| 20260504230646 | 19 | 189 | 0.0 | 1.6 | 0.00 | 0.00 | 0.00 | 49 | 1013.0 |
| 20260504230145 | 18 | 270 | 3.2 | 9.7 | 0.00 | 0.00 | 0.00 | 52 | 1013.4 |
| 20260504225643 | 18 | 189 | 4.8 | 12.9 | 0.00 | 0.00 | 0.00 | 49 | 1013.6 |
| 20260504225138 | 18 | 249 | 6.4 | 16.1 | 0.00 | 0.00 | 0.00 | 50 | 1013.3 |
| 20260504224636 | 19 | 270 | 3.2 | 9.7 | 0.00 | 0.00 | 0.00 | 53 | 1013.4 |
| 20260504224132 | 20 | 165 | 3.2 | 11.3 | 0.00 | 0.00 | 0.00 | 49 | 1013.4 |
| 20260504223630 | 20 | 248 | 4.8 | 9.7 | 0.00 | 0.00 | 0.00 | 47 | 1013.0 |
| 20260504223125 | 20 | 171 | 4.8 | 11.3 | 0.00 | 0.00 | 0.00 | 48 | 1012.9 |
| 20260504222623 | 20 | 207 | 3.2 | 9.7 | 0.00 | 0.00 | 0.00 | 49 | 1013.2 |
| 20260504222120 | 20 | 171 | 4.8 | 14.5 | 0.00 | 0.00 | 0.00 | 48 | 1013.3 |
| 20260504221617 | 20 | 216 | 4.8 | 11.3 | 0.00 | 0.00 | 0.00 | 48 | 1013.4 |
| 20260504221114 | 20 | 246 | 3.2 | 6.4 | 0.00 | 0.00 | 0.00 | 50 | 1013.2 |
| 20260504220610 | 20 | 184 | 9.7 | 14.5 | 0.00 | 0.00 | 0.00 | 47 | 1013.2 |
| 20260504220108 | 20 | 212 | 6.4 | 9.7 | 0.00 | 0.00 | 0.00 | 48 | 1013.3 |
| 20260504215603 | 20 | 152 | 3.2 | 6.4 | 0.00 | 0.00 | 0.00 | 48 | 1013.3 |
| 20260504215101 | 19 | 249 | 0.0 | 4.8 | 0.00 | 0.00 | 0.00 | 48 | 1013.3 |
| 20260504214557 | 19 | 223 | 3.2 | 6.4 | 0.00 | 0.00 | 0.00 | 48 | 1013.6 |
| 20260504214053 | 19 | 240 | 3.2 | 11.3 | 0.00 | 0.00 | 0.00 | 52 | 1013.4 |
| 20260504213550 | 19 | 252 | 4.8 | 11.3 | 0.00 | 0.00 | 0.00 | 49 | 1013.5 |
| 20260504213047 | 19 | 96 | 8.0 | 14.5 | 0.00 | 0.00 | 0.00 | 55 | 1013.5 |
| 20260504212543 | 20 | 284 | 6.4 | 9.7 | 0.00 | 0.00 | 0.00 | 49 | 1013.4 |
| 20260504212040 | 20 | 184 | 6.4 | 14.5 | 0.00 | 0.00 | 0.00 | 42 | 1013.2 |
| 20260504211537 | 20 | 266 | 9.7 | 14.5 | 0.00 | 0.00 | 0.00 | 42 | 1013.2 |
| 20260504211034 | 20 | 242 | 3.2 | 9.7 | 0.00 | 0.00 | 0.00 | 45 | 1013.0 |
| 20260504210531 | 20 | 196 | 4.8 | 12.9 | 0.00 | 0.00 | 0.00 | 44 | 1012.8 |
| 20260504210028 | 20 | 202 | 4.8 | 22.5 | 0.00 | 0.00 | 0.00 | 47 | 1012.9 |
| 20260504205526 | 20 | 246 | 3.2 | 12.9 | 0.00 | 0.00 | 0.00 | 48 | 1012.7 |
| 20260504205023 | 20 | 215 | 4.8 | 9.7 | 0.00 | 0.00 | 0.00 | 51 | 1012.6 |
| 20260504204521 | 20 | 245 | 3.2 | 17.7 | 0.00 | 0.00 | 0.00 | 43 | 1012.7 |
| 20260504204020 | 21 | 359 | 11.3 | 17.7 | 0.00 | 0.00 | 0.00 | 42 | 1012.7 |
| 20260504203518 | 20 | 253 | 4.8 | 9.7 | 0.00 | 0.00 | 0.00 | 42 | 1012.6 |
| 20260504203015 | 20 | 234 | 9.7 | 14.5 | 0.00 | 0.00 | 0.00 | 43 | 1012.5 |
| 20260504202510 | 21 | 231 | 6.4 | 16.1 | 0.00 | 0.00 | 0.00 | 43 | 1012.4 |
| 20260504202007 | 21 | 204 | 8.0 | 11.3 | 0.00 | 0.00 | 0.00 | 41 | 1012.4 |
| 20260504201504 | 21 | 223 | 12.9 | 14.5 | 0.00 | 0.00 | 0.00 | 43 | 1012.4 |
| 20260504201002 | 22 | 211 | 4.8 | 12.9 | 0.00 | 0.00 | 0.00 | 43 | 1012.4 |
| 20260504200458 | 21 | 141 | 1.6 | 12.9 | 0.00 | 0.00 | 0.00 | 41 | 1012.4 |
| 20260504195955 | 21 | 155 | 11.3 | 16.1 | 0.00 | 0.00 | 0.00 | 42 | 1012.5 |
| 20260504195451 | 20 | 96 | 1.6 | 16.1 | 0.00 | 0.00 | 0.00 | 43 | 1012.7 |
| 20260504194948 | 20 | 189 | 1.6 | 6.4 | 0.00 | 0.00 | 0.00 | 45 | 1012.8 |
| 20260504194444 | 21 | 257 | 4.8 | 9.7 | 0.00 | 0.00 | 0.00 | 43 | 1012.7 |
| 20260504193940 | 22 | 197 | 9.7 | 14.5 | 0.00 | 0.00 | 0.00 | 40 | 1012.7 |
| 20260504193437 | 21 | 177 | 6.4 | 17.7 | 0.00 | 0.00 | 0.00 | 42 | 1012.9 |
| 20260504192936 | 21 | 114 | 12.9 | 22.5 | 0.00 | 0.00 | 0.00 | 43 | 1013.0 |
| 20260504192432 | 21 | 245 | 11.3 | 16.1 | 0.00 | 0.00 | 0.00 | 40 | 1013.0 |
| 20260504191932 | 21 | 233 | 6.4 | 24.1 | 0.00 | 0.00 | 0.00 | 42 | 1013.5 |
| 20260504191429 | 20 | 222 | 11.3 | 16.1 | 0.00 | 0.00 | 0.00 | 45 | 1013.5 |
| 20260504190924 | 20 | 231 | 14.5 | 20.9 | 0.00 | 0.00 | 0.00 | 43 | 1013.6 |